#datint,netname,site,siteID,timestamp,IntT,BattV,AirT2,AirT,AirT_Avg,AirT_Max,AirT_Min,RH_Avg,RH_Max,RH_Min,EA_Avg,Td_Avg,Td_Max,Td_Min,WindS_Smp,WindS_Avg,WindD_Avg,WindD_SD,WindS_Max,ETo,ETr,SoilT4,SoilT8,SoilVWC8,SolarW_Avg,wetstate_Avg,wetT_Avg,Precip_accum,Precip_WPG,Precip_TB
15min,AgWx,beryljct,423,03DEC2020:00:00:00,13.4,12.74,15.1,15.2,16.4,17.3,15.2,62,64,60,0.187,5.5,6.2,4.5,1.578,2.7,163,17,3.7,-0.00002,-0.00002,28.9,34.8,8,0,0,.,6.00,0.00,0.00
15min,AgWx,beryljct,423,03DEC2020:00:15:00,13.5,12.73,17.1,17.1,15.2,17.1,14.5,65,68,62,0.219,5.5,8.0,4.2,3.003,2.4,185,36,4.5,-0.00004,-0.00004,28.7,34.8,8,0,0,.,6.00,0.00,0.00
15min,AgWx,beryljct,423,03DEC2020:00:30:00,14.0,12.72,19.7,18.7,17.4,18.9,15.9,65,67,63,0.220,7.6,8.7,6.1,3.376,2.3,147,59,4.1,-0.00005,-0.00005,28.4,34.7,8,0,0,.,6.00,0.00,0.00
15min,AgWx,beryljct,423,03DEC2020:00:45:00,14.7,12.71,17.0,17.7,18.2,18.8,17.5,64,66,63,0.215,8.1,8.4,7.6,3.99,3.6,71,8.1,5.5,-0.00001,0.00000,28.2,34.7,8,0,0,.,6.00,0.00,0.00
15min,AgWx,beryljct,423,03DEC2020:01:00:00,15.3,12.7,19.7,19.1,18.4,19.2,17.5,65,66,63,0.226,8.5,9.0,7.5,4.056,4.5,72,4.9,5.5,0.00001,0.00003,28.0,34.6,8,0,0,.,6.00,0.00,0.00
15min,AgWx,beryljct,423,03DEC2020:01:15:00,15.8,12.69,19.1,18.3,18.8,19.3,17.7,64,66,63,0.223,8.5,9.1,7.7,2.236,3.4,69,7.2,5.2,-0.00001,-0.00000,27.9,34.6,8,0,0,.,6.00,0.00,0.00
15min,AgWx,beryljct,423,03DEC2020:01:30:00,15.8,12.69,18.1,17.1,17.7,18.4,17.0,65,66,64,0.217,7.9,8.3,7.5,0.658,1.4,74,14,2.5,-0.00008,-0.00010,27.7,34.5,8,0,0,.,6.00,0.00,0.00
15min,AgWx,beryljct,423,03DEC2020:01:45:00,15.5,12.67,17.7,18.6,18.8,19.6,17.2,64,67,62,0.216,8.6,9.1,7.6,0,0.1,176,0.0,0.6,-0.00017,-0.00027,27.5,34.5,8,0,0,.,6.00,0.00,0.00
15min,AgWx,beryljct,423,03DEC2020:02:00:00,15.2,12.67,19.4,18.3,18.6,19.0,18.3,63,64,62,0.220,8.1,8.5,7.6,1.973,1.2,14,33,2.5,-0.00009,-0.00012,27.3,34.4,8,0,0,.,6.00,0.00,0.00
15min,AgWx,beryljct,423,03DEC2020:02:15:00,15.1,12.65,18.9,18.0,18.5,19.0,18.0,64,64,63,0.220,8.4,8.9,7.9,3.244,1.8,344,12,4.9,-0.00007,-0.00008,27.2,34.3,8,0,0,.,6.00,0.00,0.00
15min,AgWx,beryljct,423,03DEC2020:02:30:00,15.1,12.65,17.3,16.0,16.2,18.2,14.4,67,70,64,0.213,7.2,8.4,5.5,4.757,4.6,318,13,6.6,0.00001,0.00002,27.0,34.3,9,0,0,.,6.00,0.00,0.00
15min,AgWx,beryljct,423,03DEC2020:02:45:00,15.0,12.64,15.0,14.6,15.1,16.3,14.4,69,71,68,0.207,6.9,7.7,6.1,4.121,4.1,306,8.9,5.7,-0.00000,0.00000,26.9,34.2,8,0,0,.,6.00,0.00,0.00
15min,AgWx,beryljct,423,03DEC2020:03:00:00,14.6,12.62,15.8,15.4,14.6,15.4,14.1,71,72,70,0.217,6.9,7.9,6.3,3.201,4.5,299,8.7,6.2,-0.00000,0.00001,26.7,34.1,8,0,0,.,6.00,0.00,0.00
15min,AgWx,beryljct,423,03DEC2020:03:15:00,14.2,12.61,12.7,14.4,14.6,15.7,13.6,71,73,69,0.204,6.9,8.4,5.7,3.661,4.2,313,14,6.0,-0.00001,-0.00000,26.6,34.1,8,0,0,.,6.00,0.00,0.00
15min,AgWx,beryljct,423,03DEC2020:03:30:00,13.7,12.61,10.9,11.7,12.9,14.0,11.6,73,75,69,0.190,5.7,7.1,4.0,4.099,5.1,306,9.9,6.8,0.00000,0.00001,26.5,34.0,8,0,0,.,6.00,0.00,0.00
15min,AgWx,beryljct,423,03DEC2020:03:45:00,13.0,12.59,11.3,10.5,10.9,12.6,9.1,76,78,73,0.190,4.7,6.6,2.7,6.007,4.9,313,9.5,6.5,-0.00001,-0.00000,26.3,33.9,8,0,0,.,6.01,0.00,0.00
15min,AgWx,beryljct,423,03DEC2020:04:00:00,12.1,12.56,10.9,10.4,10.2,10.9,9.0,77,78,75,0.190,4.4,5.3,2.9,4.012,4.1,322,5.8,6.6,-0.00002,-0.00002,26.2,33.8,8,0,0,.,6.01,0.00,0.00
15min,AgWx,beryljct,423,03DEC2020:04:15:00,11.7,12.56,13.3,12.6,12.1,12.9,10.4,77,78,75,0.205,6.2,6.9,4.6,5.459,5.3,305,5.2,6.6,-0.00001,0.00000,26.1,33.8,8,0,0,.,6.01,0.00,0.00
15min,AgWx,beryljct,423,03DEC2020:04:30:00,11.8,12.55,12.9,12.3,13.0,13.7,12.3,75,77,74,0.200,6.7,7.4,5.9,5.787,5.3,305,6.1,6.1,-0.00000,0.00000,26.0,33.7,8,0,0,.,6.01,0.00,0.00
15min,AgWx,beryljct,423,03DEC2020:04:45:00,11.8,12.54,13.0,12.7,12.4,13.1,11.7,76,78,75,0.206,6.4,7.5,5.6,5.174,5.3,307,4.5,6.9,-0.00000,0.00000,25.9,33.6,8,0,0,.,6.01,0.00,0.00
15min,AgWx,beryljct,423,03DEC2020:05:00:00,11.7,12.52,12.9,11.7,11.3,12.9,10.2,77,79,74,0.202,5.5,6.8,4.1,4.516,4.8,311,13,6.7,-0.00001,-0.00001,25.8,33.6,8,0,0,.,6.01,0.00,0.00
15min,AgWx,beryljct,423,03DEC2020:05:15:00,11.5,12.51,10.7,9.4,10.9,11.9,9.4,78,79,76,0.184,5.2,6.4,3.6,3.749,3.6,298,40,4.8,-0.00003,-0.00003,25.7,33.5,8,0,0,.,6.01,0.00,0.00
15min,AgWx,beryljct,423,03DEC2020:05:30:00,10.8,12.5,7.5,7.7,8.8,10.4,7.7,80,81,78,0.173,3.8,5.8,2.9,4.209,4.0,178,7.0,5.0,-0.00002,-0.00002,25.6,33.4,8,0,0,.,6.01,0.00,0.00
15min,AgWx,beryljct,423,03DEC2020:05:45:00,9.9,12.48,5.8,6.4,6.8,7.6,6.1,82,84,79,0.169,2.4,3.4,1.4,3.573,3.6,192,4.3,4.4,-0.00003,-0.00003,25.5,33.4,8,0,0,.,6.01,0.00,0.00
15min,AgWx,beryljct,423,03DEC2020:06:00:00,9.1,12.48,8.1,7.0,6.9,7.9,5.9,83,85,82,0.174,2.8,4.1,1.5,4.604,3.8,187,2.8,4.7,-0.00003,-0.00003,25.4,33.3,8,0,0,.,6.01,0.00,0.00
15min,AgWx,beryljct,423,03DEC2020:06:15:00,8.5,12.48,3.8,4.8,6.6,7.4,4.8,83,84,81,0.153,2.5,3.4,0.2,2.214,3.5,178,9.7,5.0,-0.00003,-0.00003,25.3,33.2,8,0,0,.,6.01,0.00,0.00
15min,AgWx,beryljct,423,03DEC2020:06:30:00,7.8,12.47,8.2,7.7,6.1,7.9,4.0,83,86,80,0.182,2.2,4.5,-0.9,2.302,2.5,172,10,4.0,-0.00005,-0.00005,25.2,33.1,8,0,0,.,6.01,0.00,0.00
15min,AgWx,beryljct,423,03DEC2020:06:45:00,7.3,12.46,6.4,5.6,6.2,7.8,4.1,82,85,80,0.166,1.9,3.9,-0.7,2.828,2.3,181,16,2.9,-0.00005,-0.00006,25.1,33.1,8,0,0,.,6.01,0.00,0.00
15min,AgWx,beryljct,423,03DEC2020:07:00:00,6.8,12.46,3.3,3.1,4.6,5.8,3.1,83,85,82,0.144,0.6,2.2,-1.1,2.587,2.3,187,5.6,3.1,0.00003,0.00005,25.0,33.0,8,0,0,.,6.01,0.00,0.00
15min,AgWx,beryljct,423,03DEC2020:07:15:00,6.1,12.46,0.9,0.2,2.1,3.2,0.2,82,84,81,0.124,-2.1,-0.7,-4.2,1.951,2.4,168,15,3.4,0.00003,0.00005,24.8,32.9,8,0,0,.,6.01,0.00,0.00
15min,AgWx,beryljct,423,03DEC2020:07:30:00,5.1,12.46,-0.6,-1.3,-0.3,0.5,-1.3,81,82,79,0.116,-4.8,-3.9,-5.8,1.622,2.7,180,8.8,4.1,0.00004,0.00006,24.7,32.9,8,2,0,.,6.01,0.00,0.00
15min,AgWx,beryljct,423,03DEC2020:07:45:00,4.2,12.56,0.5,0.1,-0.0,1.2,-1.5,83,85,81,0.126,-4.1,-2.4,-6.0,0.482,1.2,186,0.1,2.3,0.00003,0.00004,24.6,32.8,8,10,0,.,6.01,0.00,0.00
15min,AgWx,beryljct,423,03DEC2020:08:00:00,3.8,13.09,2.2,1.0,0.6,1.0,0.0,82,84,81,0.129,-3.6,-2.9,-4.1,0.351,0.3,186,0.0,0.9,0.00009,0.00010,24.5,32.7,9,49,0,.,6.01,0.00,0.00
15min,AgWx,beryljct,423,03DEC2020:08:15:00,4.6,14.93,5.5,4.5,2.6,4.5,1.0,82,84,81,0.155,-1.6,0.5,-3.5,1.929,0.4,183,7.0,1.9,0.00014,0.00015,24.4,32.7,9,85,0,.,6.01,0.00,0.00
15min,AgWx,beryljct,423,03DEC2020:08:30:00,6.5,14.92,8.8,7.8,6.0,7.8,4.5,83,84,82,0.180,2.0,3.7,0.6,2.411,2.2,150,11,2.8,0.00022,0.00025,24.3,32.6,9,124,0,.,6.01,0.00,0.00
15min,AgWx,beryljct,423,03DEC2020:08:45:00,9.3,14.89,15.3,14.3,11.3,14.3,7.9,80,83,77,0.224,6.2,8.5,3.8,3.201,3.5,182,8.0,4.6,0.00033,0.00039,24.2,32.5,9,162,0,.,6.01,0.00,0.00
15min,AgWx,beryljct,423,03DEC2020:09:00:00,13.0,14.9,17.8,17.1,15.9,17.1,14.3,74,78,72,0.237,9.1,9.8,8.6,4.384,4.4,178,9.1,6.1,0.00047,0.00057,24.1,32.4,9,202,0,.,6.00,0.00,0.00
15min,AgWx,beryljct,423,03DEC2020:09:15:00,16.6,14.91,18.5,19.0,18.4,19.5,17.2,69,72,66,0.236,9.8,10.3,9.3,1.271,2.4,188,14,4.8,0.00061,0.00071,24.0,32.4,9,242,0,.,6.00,0.00,0.00
15min,AgWx,beryljct,423,03DEC2020:09:30:00,19.7,14.92,18.4,18.3,17.5,18.9,16.9,66,68,65,0.225,8.3,9.5,7.7,3.354,3.7,344,12,5.3,0.00069,0.00082,23.9,32.3,9,279,0,.,6.00,0.00,0.00
15min,AgWx,beryljct,423,03DEC2020:09:45:00,22.2,14.99,20.5,19.8,19.2,19.9,18.3,63,65,61,0.226,8.8,9.2,8.2,3.749,4.0,332,12,5.4,0.00081,0.00097,23.9,32.2,9,316,0,.,6.00,0.00,0.00
15min,AgWx,beryljct,423,03DEC2020:10:00:00,24.4,14.94,21.0,20.7,20.4,20.9,19.8,61,62,59,0.227,9.0,9.5,8.5,5.327,3.9,0.9,21,5.8,0.00094,0.00111,23.9,32.2,9,351,0,.,6.00,0.00,0.00
15min,AgWx,beryljct,423,03DEC2020:10:15:00,26.3,14.84,22.2,22.0,21.3,22.0,20.7,58,60,57,0.234,9.0,10.2,8.5,4.362,3.5,10,22,5.8,0.00105,0.00123,24.0,32.1,9,383,0,.,6.00,0.00,0.00
15min,AgWx,beryljct,423,03DEC2020:10:30:00,27.9,14.41,23.1,23.3,22.3,23.3,21.7,56,58,55,0.238,9.1,9.9,8.5,5.546,3.4,352,27,5.5,0.00116,0.00136,24.1,32.0,9,413,0,.,6.00,0.00,0.00
15min,AgWx,beryljct,423,03DEC2020:10:45:00,29.3,14.4,24.0,24.1,23.4,24.1,22.8,55,56,53,0.239,9.4,10.2,8.9,2.346,3.6,18,17,6.6,0.00127,0.00148,24.2,32.0,8,440,0,.,6.00,0.00,0.00
15min,AgWx,beryljct,423,03DEC2020:11:00:00,30.5,14.4,25.0,25.1,24.6,25.2,23.9,53,54,51,0.236,9.7,10.2,9.4,3.025,3.7,354,14,5.9,0.00137,0.00161,24.4,31.9,8,463,0,.,6.00,0.00,0.00
15min,AgWx,beryljct,423,03DEC2020:11:15:00,31.7,14.35,27.7,26.9,26.5,27.5,25.1,50,52,48,0.242,10.1,11.4,9.6,2.916,4.0,9.5,17,7.3,0.00150,0.00178,24.6,31.8,8,484,0,.,6.00,0.00,0.00
15min,AgWx,beryljct,423,03DEC2020:11:30:00,32.8,14.32,29.9,28.2,27.8,28.9,26.7,47,49,45,0.238,10.3,11.4,9.7,5.897,3.9,12,17,7.1,0.00161,0.00190,24.9,31.8,8,501,0,.,6.00,0.00,0.00
15min,AgWx,beryljct,423,03DEC2020:11:45:00,33.7,14.44,28.5,29.1,28.9,29.4,28.4,45,46,44,0.239,10.0,10.5,9.6,2.587,4.9,19,21,7.1,0.00170,0.00205,25.2,31.7,8,515,0,.,6.00,0.00,0.00
15min,AgWx,beryljct,423,03DEC2020:12:00:00,34.6,14.43,30.5,30.0,29.9,30.8,28.7,43,45,41,0.234,10.0,11.2,9.2,4.012,4.0,5.8,18,7.4,0.00177,0.00211,25.5,31.7,8,524,0,.,5.99,0.00,0.00
15min,AgWx,beryljct,423,03DEC2020:12:15:00,35.4,14.28,32.0,31.9,31.1,32.3,30.1,40,42,38,0.237,9.7,10.5,9.1,6.84,5.1,8.4,23,9.4,0.00186,0.00227,25.8,31.6,8,531,0,.,5.99,0.00,0.00
15min,AgWx,beryljct,423,03DEC2020:12:30:00,36.0,14.27,33.7,32.5,32.2,32.9,31.5,38,39,37,0.230,9.4,10.1,8.9,4.143,5.6,14,23,8.6,0.00194,0.00239,26.2,31.6,8,534,0,.,5.99,0.00,0.00
15min,AgWx,beryljct,423,03DEC2020:12:45:00,36.9,14.3,33.9,33.5,33.4,34.2,32.6,36,37,35,0.234,9.4,10.4,8.6,5.349,4.7,1.6,28,9.2,0.00199,0.00243,26.7,31.6,8,532,0,.,5.99,0.00,0.00
15min,AgWx,beryljct,423,03DEC2020:13:00:00,37.7,14.19,34.9,35.0,34.2,35.2,33.5,34,36,33,0.231,9.0,9.8,8.4,4.165,5.3,0.7,21,8.9,0.00203,0.00252,27.1,31.6,8,527,0,.,5.99,0.00,0.00
15min,AgWx,beryljct,423,03DEC2020:13:15:00,38.7,14.17,36.4,36.0,35.2,36.0,34.6,33,34,32,0.239,8.8,9.9,8.0,4.231,4.3,28,20,8.5,0.00203,0.00248,27.6,31.6,8,519,0,.,5.99,0.00,0.00
15min,AgWx,beryljct,423,03DEC2020:13:30:00,39.6,14.15,36.6,36.5,36.1,37.0,35.7,31,33,30,0.217,8.7,9.8,7.8,3.793,4.9,16,24,7.8,0.00205,0.00255,28.1,31.6,9,507,0,.,5.99,0.00,0.00
15min,AgWx,beryljct,423,03DEC2020:13:45:00,40.5,14.15,38.0,38.0,37.6,38.2,36.5,29,30,27,0.206,7.9,9.2,6.6,6.314,5.4,11,19,8.4,0.00209,0.00265,28.5,31.6,8,491,0,.,5.98,0.00,0.00
15min,AgWx,beryljct,423,03DEC2020:14:00:00,41.5,14.11,38.7,39.3,38.9,40.0,38.0,25,27,24,0.207,6.5,7.3,5.7,6.642,6.8,35,20,9.7,0.00210,0.00280,29.0,31.6,8,457,0,.,5.98,0.00,0.00
15min,AgWx,beryljct,423,03DEC2020:14:15:00,42.5,14.1,41.9,40.7,39.8,40.7,39.2,25,26,23,0.204,6.6,7.6,5.5,6.796,6.3,41,15,8.9,0.00209,0.00277,29.5,31.6,8,448,0,.,5.98,0.00,0.00
15min,AgWx,beryljct,423,03DEC2020:14:30:00,43.4,14.08,41.5,41.7,41.1,41.7,40.5,23,24,21,0.195,5.6,6.6,4.3,7.848,6.9,63,17,10.6,0.00206,0.00281,29.9,31.6,8,415,0,.,5.98,0.00,0.00
15min,AgWx,beryljct,423,03DEC2020:14:45:00,44.3,14.05,41.9,42.1,41.7,42.2,41.2,21,22,20,0.184,4.2,5.3,3.4,8.48,6.7,40,18,10.4,0.00201,0.00277,30.4,31.6,8,393,0,.,5.97,0.00,0.00
15min,AgWx,beryljct,423,03DEC2020:15:00:00,45.1,14.13,42.0,42.2,42.3,42.9,41.8,20,21,20,0.192,4.5,5.9,3.8,9.97,8.1,29,17,13.0,0.00200,0.00286,30.7,31.7,8,361,0,.,5.97,0.00,0.00
15min,AgWx,beryljct,423,03DEC2020:15:15:00,45.6,14,42.9,42.7,42.4,43.0,42.1,21,22,20,0.195,5.3,6.4,4.4,9.03,7.5,35,13,11.2,0.00183,0.00264,31.2,31.8,8,326,0,.,5.97,0.00,0.00
15min,AgWx,beryljct,423,03DEC2020:15:30:00,46.0,14.05,42.9,42.4,42.5,42.8,42.2,22,23,21,0.211,6.4,7.5,5.3,7.344,7.0,38,11,10.3,0.00163,0.00239,31.5,31.8,8,290,0,.,5.97,0.00,0.00
15min,AgWx,beryljct,423,03DEC2020:15:45:00,46.2,14.03,42.2,42.0,42.3,42.6,42.0,23,24,23,0.214,7.4,7.9,6.9,4.428,5.8,36,10,9.4,0.00136,0.00201,31.9,31.9,8,252,0,.,5.97,0.00,0.00
15min,AgWx,beryljct,423,03DEC2020:16:00:00,46.2,14.01,41.6,41.5,41.9,42.3,41.5,24,25,24,0.217,7.8,8.2,7.4,6.533,6.4,28,13,8.7,0.00123,0.00189,32.2,32.0,8,213,0,.,5.97,0.00,0.00
15min,AgWx,beryljct,423,03DEC2020:16:15:00,45.8,14.03,41.0,40.8,41.2,41.6,40.7,25,25,24,0.219,8.0,8.1,7.7,6.774,6.5,30,12,9.4,0.00106,0.00170,32.4,32.1,8,173,0,.,5.97,0.00,0.00
15min,AgWx,beryljct,423,03DEC2020:16:30:00,45.0,14.11,38.8,39.4,40.1,40.8,39.4,26,27,25,0.219,8.1,8.3,7.9,3.442,5.4,42,7.8,7.4,0.00046,0.00058,32.6,32.1,8,135,0,.,5.97,0.00,0.00
15min,AgWx,beryljct,423,03DEC2020:16:45:00,43.9,14.12,38.0,38.0,38.7,39.3,37.9,27,28,27,0.214,7.8,8.2,7.3,4.932,4.9,37,4.2,5.8,0.00036,0.00047,32.8,32.2,8,97,0,.,5.97,0.00,0.00
15min,AgWx,beryljct,423,03DEC2020:17:00:00,42.0,13.19,36.5,36.7,37.3,37.8,36.7,28,28,27,0.204,7.0,7.3,6.4,5.524,4.1,25,8.7,6.1,0.00022,0.00031,32.9,32.3,9,37,0,.,5.97,0.00,0.00
15min,AgWx,beryljct,423,03DEC2020:17:15:00,39.4,13.09,34.9,33.5,35.0,36.7,32.7,29,32,28,0.205,6.3,6.7,5.6,4.669,5.0,19,4.9,5.8,0.00021,0.00028,32.9,32.5,8,10,0,.,5.97,0.00,0.00
15min,AgWx,beryljct,423,03DEC2020:17:30:00,36.6,13.02,30.8,31.1,33.5,34.9,31.1,31,33,30,0.196,6.2,6.9,5.3,5.393,5.3,16,9.4,6.6,0.00020,0.00027,32.9,32.5,8,4,0,.,5.97,0.00,0.00
15min,AgWx,beryljct,423,03DEC2020:17:45:00,34.0,13,31.4,30.6,30.3,31.1,29.6,34,35,33,0.192,5.4,5.9,5.1,5.152,5.3,20,6.0,5.9,0.00016,0.00022,32.9,32.7,9,0,0,.,5.98,0.00,0.00
15min,AgWx,beryljct,423,03DEC2020:18:00:00,31.7,12.99,28.8,26.7,27.9,31.0,25.5,36,39,33,0.189,4.4,5.2,3.5,4.867,4.4,331,22,5.9,0.00011,0.00016,32.8,32.8,8,0,0,.,5.98,0.00,0.00
15min,AgWx,beryljct,423,03DEC2020:18:15:00,29.8,12.97,30.7,30.7,28.7,30.7,26.9,36,38,33,0.190,4.7,5.1,4.1,3.99,5.0,342,18,6.3,0.00014,0.00019,32.7,32.9,8,0,0,.,5.98,0.00,0.00
15min,AgWx,beryljct,423,03DEC2020:18:30:00,29.0,12.95,29.8,29.8,30.5,30.9,29.8,33,33,32,0.185,4.6,5.0,4.3,2.916,3.8,6.3,12,5.2,0.00010,0.00015,32.5,32.9,9,0,0,.,5.98,0.00,0.00
15min,AgWx,beryljct,423,03DEC2020:18:45:00,28.3,12.94,28.9,28.1,28.9,29.8,28.0,35,36,33,0.185,4.5,4.8,4.1,2.083,2.6,347,18,4.1,0.00002,0.00005,32.3,33.0,8,0,0,.,5.98,0.00,0.00
15min,AgWx,beryljct,423,03DEC2020:19:00:00,27.3,12.94,28.4,27.9,28.0,28.3,27.7,36,37,36,0.192,4.7,5.1,4.3,0,1.2,325,22,2.6,-0.00010,-0.00012,32.1,33.1,9,0,0,.,5.98,0.00,0.00
15min,AgWx,beryljct,423,03DEC2020:19:15:00,26.2,12.92,26.7,27.0,27.7,28.3,27.0,38,40,37,0.199,5.4,5.9,5.0,0.636,0.3,77,29,3.0,-0.00020,-0.00030,31.9,33.2,9,0,0,.,5.98,0.00,0.00
15min,AgWx,beryljct,423,03DEC2020:19:30:00,25.4,12.91,24.4,24.7,25.9,27.1,24.7,42,44,40,0.199,5.7,6.0,5.3,2.587,2.4,67,13,4.8,-0.00001,0.00001,31.7,33.3,8,0,0,.,5.98,0.00,0.00
15min,AgWx,beryljct,423,03DEC2020:19:45:00,24.5,12.89,25.2,24.7,24.9,25.4,24.4,44,44,43,0.199,5.9,6.3,5.7,2.718,1.9,56,11,3.8,-0.00004,-0.00004,31.5,33.4,9,0,0,.,5.98,0.00,0.00
15min,AgWx,beryljct,423,03DEC2020:20:00:00,23.8,12.89,25.1,24.1,24.3,24.8,23.7,45,46,44,0.204,6.0,6.4,5.6,4.209,2.8,57,8.1,4.3,0.00001,0.00003,31.2,33.4,8,0,0,.,5.98,0.00,0.00
15min,AgWx,beryljct,423,03DEC2020:20:15:00,23.5,12.89,25.6,25.2,24.5,25.3,24.1,46,46,45,0.208,6.6,7.0,6.3,5.371,5.1,66,6.8,7.0,0.00009,0.00012,31.0,33.5,8,0,0,.,5.98,0.00,0.00
15min,AgWx,beryljct,423,03DEC2020:20:30:00,23.5,12.88,23.6,24.5,25.1,25.7,24.5,45,46,45,0.206,6.9,7.3,6.5,1.622,5.2,59,18,7.7,0.00010,0.00013,30.7,33.5,9,0,0,.,5.98,0.00,0.00
15min,AgWx,beryljct,423,03DEC2020:20:45:00,23.2,12.86,23.3,22.5,21.9,24.3,20.7,48,50,45,0.196,5.3,6.3,4.5,2.959,2.7,332,20,4.4,-0.00000,0.00001,30.5,33.6,9,0,0,.,5.98,0.00,0.00
15min,AgWx,beryljct,423,03DEC2020:21:00:00,22.6,12.85,23.0,23.0,22.8,23.6,22.1,48,49,47,0.199,6.0,6.9,5.3,3.595,4.2,39,17,6.7,0.00005,0.00008,30.2,33.6,8,0,0,.,5.98,0.00,0.00
15min,AgWx,beryljct,423,03DEC2020:21:15:00,22.3,12.85,22.7,22.4,22.4,23.0,22.0,49,49,47,0.199,5.9,6.2,5.5,5.546,5.2,44,8.3,6.9,0.00008,0.00011,30.0,33.6,8,0,0,.,5.98,0.00,0.00
15min,AgWx,beryljct,423,03DEC2020:21:30:00,22.1,12.84,23.0,22.4,22.4,22.7,22.1,49,49,48,0.200,6.0,6.3,5.7,5.393,5.4,34,9.3,7.2,0.00008,0.00011,29.8,33.6,9,0,0,.,5.98,0.00,0.00
15min,AgWx,beryljct,423,03DEC2020:21:45:00,21.8,12.83,17.6,18.1,20.3,23.4,17.9,50,54,46,0.185,4.6,6.0,3.6,5.459,4.9,340,22,6.4,0.00006,0.00009,29.6,33.6,9,0,0,.,5.99,0.00,0.00
15min,AgWx,beryljct,423,03DEC2020:22:00:00,20.9,12.82,20.1,18.4,17.7,19.3,16.3,54,55,51,0.186,3.7,4.9,2.5,5.196,5.1,322,7.0,7.6,0.00005,0.00007,29.4,33.6,8,0,0,.,5.99,0.00,0.00
15min,AgWx,beryljct,423,03DEC2020:22:15:00,20.2,12.8,22.0,20.6,19.9,20.7,18.5,51,54,49,0.188,4.6,5.2,4.0,5.261,5.0,335,12,7.2,0.00006,0.00009,29.2,33.6,8,0,0,.,5.99,0.00,0.00
15min,AgWx,beryljct,423,03DEC2020:22:30:00,19.9,12.79,20.9,20.4,19.7,21.3,17.8,50,54,48,0.192,4.2,5.4,3.2,2.587,2.6,327,14,6.2,-0.00001,0.00001,29.1,33.6,9,0,0,.,5.99,0.00,0.00
15min,AgWx,beryljct,423,03DEC2020:22:45:00,19.5,12.78,19.8,20.7,20.0,21.1,18.9,50,52,49,0.187,4.5,5.2,3.4,3.442,3.3,322,12,5.0,0.00002,0.00004,28.9,33.6,8,0,0,.,5.99,0.00,0.00
15min,AgWx,beryljct,423,03DEC2020:23:00:00,19.3,12.78,19.2,19.1,20.5,21.8,18.4,49,52,48,0.177,4.4,5.4,2.8,3.727,2.6,324,17,4.3,-0.00001,0.00000,28.7,33.6,8,0,0,.,5.99,0.00,0.00
15min,AgWx,beryljct,423,03DEC2020:23:15:00,18.9,12.76,17.9,17.9,18.8,19.7,17.8,51,53,50,0.175,3.7,4.7,2.8,5.064,3.8,315,10,5.3,0.00003,0.00005,28.6,33.6,8,0,0,.,5.99,0.00,0.00
15min,AgWx,beryljct,423,03DEC2020:23:30:00,18.1,12.77,14.7,15.3,16.7,18.3,15.3,54,56,52,0.169,3.0,3.8,2.2,3.771,5.1,303,2.9,6.2,0.00005,0.00007,28.4,33.6,8,0,0,.,5.99,0.00,0.00
15min,AgWx,bigpiney,439,03DEC2020:00:00:00,1.0,12.54,2.8,0.8,2.1,3.6,0.2,75,77,71,0.116,-4.0,-2.3,-6.9,2.894,2.2,220,5.5,3.6,-0.00004,-0.00005,31.4,34.1,46,0,0,0.0,0.50,0.00,0.00
15min,AgWx,bigpiney,439,03DEC2020:00:15:00,-0.1,12.53,2.8,1.4,-0.7,1.5,-4.0,76,80,69,0.126,-6.5,-3.3,-11.3,1.995,2.5,226,4.1,4.8,-0.00003,-0.00003,31.4,34.1,46,0,0,0.0,0.50,0.00,0.00
15min,AgWx,bigpiney,439,03DEC2020:00:30:00,-1.1,12.52,-4.0,-4.2,-2.6,2.5,-4.7,76,80,69,0.098,-8.3,-2.7,-12.2,4.297,3.6,220,7.5,5.2,-0.00002,-0.00002,31.4,34.0,46,0,0,0.0,0.50,0.00,0.00
15min,AgWx,bigpiney,439,03DEC2020:00:45:00,-1.9,12.51,-1.8,-4.7,-4.9,-4.1,-5.4,79,80,78,0.096,-9.8,-8.8,-10.4,2.85,4.2,235,12,5.7,-0.00001,-0.00001,31.4,34.1,46,0,0,0.0,0.50,0.00,0.00
15min,AgWx,bigpiney,439,03DEC2020:01:00:00,-2.5,12.5,-2.2,-2.6,-2.5,0.8,-4.8,80,83,77,0.104,-7.1,-3.1,-10.3,2.061,2.0,291,21,3.8,-0.00004,-0.00005,31.4,34.1,46,0,0,0.0,0.50,0.00,0.00
15min,AgWx,bigpiney,439,03DEC2020:01:15:00,-2.8,12.49,-2.2,-1.8,-2.1,-1.0,-2.8,80,81,78,0.112,-6.8,-5.5,-7.9,1.776,1.3,288,34,2.1,-0.00005,-0.00007,31.3,34.0,46,0,0,0.0,0.50,0.00,0.00
15min,AgWx,bigpiney,439,03DEC2020:01:30:00,-3.2,12.47,-3.1,-3.5,-1.9,0.8,-3.5,78,82,75,0.099,-7.1,-3.5,-9.1,4.143,2.9,218,6.5,4.2,-0.00003,-0.00003,31.3,34.1,46,0,0,0.0,0.50,0.00,0.00
15min,AgWx,bigpiney,439,03DEC2020:01:45:00,-3.5,12.46,-3.3,-4.7,-3.9,-2.9,-4.9,78,79,77,0.095,-9.1,-8.1,-10.0,4.384,3.2,212,5.4,4.4,-0.00002,-0.00002,31.3,34.0,46,0,0,0.0,0.50,0.00,0.00
15min,AgWx,bigpiney,439,03DEC2020:02:00:00,-3.8,12.45,-3.7,-3.3,-4.4,-2.6,-5.8,78,81,76,0.104,-9.5,-6.9,-11.4,3.858,3.4,228,10,4.8,-0.00002,-0.00002,31.3,34.0,46,0,0,0.0,0.50,0.00,0.00
15min,AgWx,bigpiney,439,03DEC2020:02:15:00,-4.1,12.43,-4.6,-4.6,-4.4,-3.3,-4.9,76,79,75,0.092,-10.0,-8.1,-10.8,4.034,3.4,228,6.4,4.5,-0.00002,-0.00002,31.3,34.0,46,0,0,0.0,0.50,0.00,0.00
15min,AgWx,bigpiney,439,03DEC2020:02:30:00,-4.3,12.43,-5.1,-5.5,-5.4,-4.7,-5.8,76,76,75,0.088,-11.1,-10.5,-11.6,2.565,4.2,228,7.6,5.0,-0.00001,-0.00001,31.3,34.0,46,0,0,0.0,0.50,0.00,0.00
15min,AgWx,bigpiney,439,03DEC2020:02:45:00,-4.7,12.42,-8.2,-7.9,-5.3,-3.6,-7.9,75,76,73,0.078,-11.2,-9.3,-13.7,3.902,2.9,349,81,5.5,-0.00002,-0.00002,31.3,34.1,46,0,0,0.0,0.50,0.00,0.00
15min,AgWx,bigpiney,439,03DEC2020:03:00:00,-5.0,12.41,-6.3,-7.2,-8.4,-7.2,-9.1,78,82,75,0.087,-13.4,-11.4,-14.4,0,1.0,51,2.2,4.0,-0.00004,-0.00006,31.3,34.0,46,0,0,0.0,0.50,0.00,0.00
15min,AgWx,bigpiney,439,03DEC2020:03:15:00,-5.4,12.4,-3.6,-4.8,-6.0,-4.8,-7.2,81,82,80,0.097,-10.5,-9.3,-11.5,1.666,1.2,234,1.9,2.0,-0.00005,-0.00006,31.3,34.0,46,0,0,0.0,0.50,0.00,0.00
15min,AgWx,bigpiney,439,03DEC2020:03:30:00,-5.6,12.39,-1.1,-1.9,-3.1,-1.8,-4.8,78,80,76,0.106,-8.2,-7.3,-9.3,2.74,2.4,249,2.5,3.6,-0.00003,-0.00004,31.3,34.1,46,0,0,0.0,0.50,0.00,0.00
15min,AgWx,bigpiney,439,03DEC2020:03:45:00,-5.6,12.37,-6.5,-6.8,-3.1,-0.8,-6.8,75,77,71,0.083,-9.1,-6.4,-13.0,4.341,4.1,246,4.6,5.5,-0.00001,-0.00001,31.3,34.1,46,0,0,0.0,0.50,0.00,0.00
15min,AgWx,bigpiney,439,03DEC2020:04:00:00,-5.8,12.37,-3.2,-4.3,-5.8,-4.3,-6.8,79,80,76,0.098,-10.8,-9.0,-12.3,2.017,3.6,239,8.5,5.0,-0.00002,-0.00002,31.3,34.1,46,0,0,0.0,0.50,0.00,0.00
15min,AgWx,bigpiney,439,03DEC2020:04:15:00,-5.9,12.37,-3.8,-6.4,-3.4,-0.4,-7.5,77,82,71,0.083,-8.8,-4.9,-14.6,0,0.6,226,3.7,3.1,-0.00007,-0.00009,31.2,34.1,46,0,0,0.0,0.50,0.00,0.00
15min,AgWx,bigpiney,439,03DEC2020:04:30:00,-6.3,12.36,-2.4,-3.0,-3.1,-2.2,-6.1,78,81,75,0.103,-8.2,-7.0,-11.9,2.346,1.1,219,6.5,2.4,-0.00006,-0.00007,31.2,34.1,46,0,0,0.0,0.50,0.00,0.00
15min,AgWx,bigpiney,439,03DEC2020:04:45:00,-6.8,12.36,-0.4,-1.0,-1.4,-0.6,-3.0,78,79,77,0.113,-6.5,-5.6,-8.1,1.293,0.8,248,15,2.3,-0.00006,-0.00009,31.2,34.0,46,0,0,0.0,0.50,0.00,0.00
15min,AgWx,bigpiney,439,03DEC2020:05:00:00,-7.0,12.35,-9.0,-6.9,-3.2,-0.8,-6.9,78,80,74,0.082,-8.4,-5.9,-12.7,4.099,2.5,250,9.8,4.1,-0.00003,-0.00003,31.3,34.0,46,0,0,0.0,0.50,0.00,0.00
15min,AgWx,bigpiney,439,03DEC2020:05:15:00,-7.5,12.34,-7.6,-0.4,-3.8,-0.0,-8.5,80,84,74,0.118,-8.4,-4.7,-14.5,3.529,2.9,239,3.7,4.1,-0.00003,-0.00003,31.2,34.0,46,0,0,0.0,0.50,0.00,0.00
15min,AgWx,bigpiney,439,03DEC2020:05:30:00,-7.8,12.34,-1.6,-5.9,-6.0,-1.2,-8.2,76,80,72,0.091,-11.6,-6.3,-14.8,0,1.4,238,7.1,3.8,-0.00004,-0.00005,31.2,34.0,46,0,0,0.0,0.50,0.00,0.00
15min,AgWx,bigpiney,439,03DEC2020:05:45:00,-8.0,12.33,-6.5,-5.9,-3.6,-2.5,-5.9,79,83,77,0.088,-8.4,-6.9,-11.2,0,0.2,357,13,1.2,-0.00008,-0.00012,31.2,34.0,46,0,0,0.0,0.50,0.00,0.00
15min,AgWx,bigpiney,439,03DEC2020:06:00:00,-8.0,12.33,-2.9,-3.8,-5.3,-3.8,-6.3,80,81,77,0.102,-9.9,-8.2,-11.6,1.666,0.8,220,7.7,1.7,-0.00006,-0.00008,31.2,34.0,46,0,0,0.0,0.50,0.00,0.00
15min,AgWx,bigpiney,439,03DEC2020:06:15:00,-7.9,12.33,-7.5,-3.6,-3.0,-2.4,-3.8,80,81,77,0.099,-7.7,-7.1,-9.0,3.858,2.8,213,7.1,3.9,-0.00003,-0.00003,31.2,34.0,46,0,0,0.0,0.50,0.00,0.00
15min,AgWx,bigpiney,439,03DEC2020:06:30:00,-8.0,12.31,-1.9,-2.8,-6.2,-2.5,-8.8,77,81,72,0.106,-11.5,-7.2,-14.7,0,2.3,244,11,4.1,-0.00003,-0.00003,31.2,34.1,46,0,0,0.0,0.50,0.00,0.00
15min,AgWx,bigpiney,439,03DEC2020:06:45:00,-8.0,12.32,0.2,-0.7,-1.3,-0.5,-2.8,78,79,76,0.112,-6.6,-5.8,-7.8,0.11,0.3,253,5.0,1.0,-0.00008,-0.00012,31.2,34.0,46,0,0,0.0,0.50,0.00,0.00
15min,AgWx,bigpiney,439,03DEC2020:07:00:00,-7.7,12.3,-6.4,-6.3,-2.0,-0.2,-6.3,75,77,72,0.084,-7.9,-5.6,-12.3,0.46,0.4,322,31,1.7,-0.00008,-0.00011,31.2,34.0,46,0,0,0.0,0.50,0.00,0.00
15min,AgWx,bigpiney,439,03DEC2020:07:15:00,-7.6,12.31,-6.0,-6.8,-7.1,-6.3,-7.9,78,80,75,0.088,-12.2,-11.4,-13.4,0,0.4,164,13,1.3,-0.00006,-0.00009,31.2,34.0,46,0,0,0.0,0.50,0.00,0.00
15min,AgWx,bigpiney,439,03DEC2020:07:30:00,-7.6,12.34,-6.7,-6.4,-6.2,-5.7,-6.8,79,80,78,0.088,-10.9,-10.4,-11.5,0.986,0.9,180,8.1,1.8,-0.00005,-0.00007,31.2,34.0,46,3,0,0.0,0.50,0.00,0.00
15min,AgWx,bigpiney,439,03DEC2020:07:45:00,-7.8,14.98,-7.7,-8.7,-8.9,-6.5,-9.9,78,79,76,0.079,-14.0,-11.4,-15.2,2.148,1.8,227,16,2.8,-0.00002,-0.00003,31.1,34.0,46,17,0,0.0,0.50,0.00,0.00
15min,AgWx,bigpiney,439,03DEC2020:08:00:00,-7.6,14.99,-3.0,-4.3,-6.8,-4.3,-8.7,79,81,78,0.100,-11.6,-8.8,-13.6,1.535,0.8,198,52,2.2,-0.00005,-0.00005,31.1,34.0,46,46,0,0.0,0.50,0.00,0.00
15min,AgWx,bigpiney,439,03DEC2020:08:15:00,-6.6,15.1,-2.7,-3.4,-4.2,-3.3,-4.7,79,81,78,0.104,-9.0,-7.9,-9.8,0,0.9,74,7.7,2.5,-0.00001,-0.00000,31.1,34.1,46,77,0,0.0,0.50,0.00,0.00
15min,AgWx,bigpiney,439,03DEC2020:08:30:00,-4.6,14.96,-3.1,-3.6,-3.3,-2.9,-3.6,79,80,78,0.099,-8.3,-7.7,-8.9,0,1.0,77,17,2.5,0.00004,0.00006,31.1,34.0,46,110,0,0.0,0.50,0.00,0.00
15min,AgWx,bigpiney,439,03DEC2020:08:45:00,-2.2,14.99,-1.9,-2.2,-2.8,-2.1,-3.6,78,79,77,0.107,-7.9,-7.3,-8.9,0.592,0.1,7.4,5.1,1.1,0.00009,0.00010,31.1,34.0,46,142,0,0.0,0.50,0.00,0.00